Location: Oberkirch
(48.5323°N, 8.0787°E)
Time: 13:50:48
(UTC+00:00)

PAYLOAD A - Visible Passes

Search period start: 14 February 2026 00:00
Search period end: 24 February 2026 00:00
Orbit: 690 x 828 km, 98.6° (Epoch: 13 February)

Date Brightness Start Highest point End Pass type
(mag) Time Alt. Az. Time Alt. Az. Time Alt. Az.
14 Feb 6.8 02:17:53 10° ENE 02:20:08 13° E 02:21:13 12° E visible
14 Feb 4.1 03:54:26 10° NNE 03:59:45 80° ESE 04:01:19 48° S visible
14 Feb 5.4 05:34:24 10° NNW 05:38:01 19° WNW 05:41:25 11° W visible
15 Feb 5.3 03:16:09 10° NNE 03:21:07 39° E 03:22:34 33° SE visible
15 Feb 4.7 04:55:08 10° N 04:59:54 35° WNW 05:02:40 21° WSW visible
16 Feb 6.4 02:38:29 10° NE 02:42:17 19° E 02:43:50 17° ESE visible
16 Feb 4.0 04:16:18 10° N 04:21:35 70° WNW 04:23:56 34° SW visible
16 Feb 5.8 05:57:02 10° NNW 05:59:32 14° NW 06:02:05 10° W visible
17 Feb 4.6 03:37:47 10° NNE 03:43:03 59° E 03:45:11 35° SSE visible
17 Feb 5.1 05:17:17 10° N 05:21:32 25° WNW 05:25:16 12° WSW visible
18 Feb 5.8 02:59:43 10° NE 03:04:21 29° E 03:06:26 22° SE visible
18 Feb 4.3 04:38:15 10° N 04:43:21 48° WNW 04:46:32 22° SW visible
19 Feb 6.8 02:22:36 10° NE 02:25:23 14° E 02:27:42 11° ESE visible
19 Feb 4.1 03:59:34 10° NNE 04:04:56 87° E 04:07:47 29° SSW visible
19 Feb 5.5 05:39:38 10° NNW 05:43:08 18° NW 05:46:39 10° W visible
20 Feb 5.2 03:21:14 10° NNE 03:26:20 43° E 03:29:03 25° SSE visible
20 Feb 4.8 05:00:19 10° N 05:05:03 33° WNW 05:09:08 13° WSW visible
21 Feb 6.3 02:43:27 10° NE 02:47:31 21° E 02:50:17 15° SE visible
21 Feb 4.1 04:21:27 10° N 04:26:46 64° WNW 04:30:23 21° SSW visible
22 Feb 4.5 03:42:54 10° NNE 03:48:17 65° ESE 03:51:37 23° S visible
22 Feb 5.3 05:22:31 10° N 05:26:41 24° WNW 05:30:52 10° WSW visible
23 Feb 5.7 03:04:46 10° NNE 03:09:34 32° E 03:12:53 17° SSE visible
23 Feb 4.5 04:43:26 10° N 04:48:31 44° WNW 04:52:57 13° SW visible
